SWA250 KMEM-KIND

Flight info

Callsign SWA250
Flight time 0h 51m
Altitude 35000
Route CRSON7 HUMMS PXV EMBRR SMUKE3
Aircraft B738/M-SDE2E3FGHIRWXY/LB1

Departure

Time 2026-05-06 00:34
Airport Memphis International Airport (KMEM)

Arrival

Time 2026-05-06 01:26
Airport Indianapolis International Airport (KIND)
Time Latitude Longitude Altitude Speed Heading
2026-05-05 23:54 35.04532 -89.98420 343 ft 0 kts 101°
2026-05-06 00:24 35.04532 -89.98422 343 ft 1 kts 101°
2026-05-06 00:24 35.04534 -89.98433 342 ft 2 kts 99°
2026-05-06 00:24 35.04534 -89.98450 342 ft 2 kts 78°
2026-05-06 00:25 35.04530 -89.98467 342 ft 2 kts 62°
2026-05-06 00:25 35.04521 -89.98483 342 ft 2 kts 46°
2026-05-06 00:25 35.04510 -89.98494 342 ft 2 kts 29°
2026-05-06 00:25 35.04496 -89.98501 342 ft 2 kts 13°
2026-05-06 00:26 35.04485 -89.98503 343 ft 0 kts
2026-05-06 00:26 35.04478 -89.98502 343 ft 0 kts 358°
2026-05-06 00:28 35.04487 -89.98503 343 ft 3 kts 358°
2026-05-06 00:28 35.04525 -89.98503 343 ft 6 kts 359°
2026-05-06 00:29 35.04567 -89.98504 343 ft 5 kts 359°
2026-05-06 00:29 35.04610 -89.98505 343 ft 6 kts 359°
2026-05-06 00:29 35.04658 -89.98506 343 ft 7 kts 359°
2026-05-06 00:29 35.04709 -89.98508 343 ft 7 kts 359°
2026-05-06 00:30 35.04764 -89.98508 343 ft 8 kts 359°
2026-05-06 00:30 35.04821 -89.98510 342 ft 8 kts 358°
2026-05-06 00:30 35.04881 -89.98511 343 ft 9 kts 359°
2026-05-06 00:30 35.04934 -89.98537 342 ft 7 kts 300°
2026-05-06 00:31 35.04939 -89.98597 342 ft 6 kts 267°
2026-05-06 00:31 35.04939 -89.98618 342 ft 0 kts 269°
2026-05-06 00:32 35.04939 -89.98624 342 ft 3 kts 269°
2026-05-06 00:33 35.04937 -89.98698 342 ft 11 kts 264°
2026-05-06 00:33 35.04882 -89.98743 343 ft 5 kts 180°
2026-05-06 00:33 35.04881 -89.98743 342 ft 0 kts 180°
2026-05-06 00:33 35.04845 -89.98743 342 ft 17 kts 180°
2026-05-06 00:34 35.04474 -89.98737 343 ft 91 kts 180°
2026-05-06 00:34 35.03611 -89.98718 345 ft 155 kts 180°
2026-05-06 00:34 35.02434 -89.98679 851 ft 172 kts 180°
2026-05-06 00:34 35.01282 -89.98639 1795 ft 168 kts 182°
2026-05-06 00:35 35.00124 -89.98613 2475 ft 171 kts 184°
2026-05-06 00:35 34.98910 -89.98548 3017 ft 182 kts 180°
2026-05-06 00:35 34.97660 -89.98011 3589 ft 200 kts 159°
2026-05-06 00:35 34.96450 -89.97098 4145 ft 210 kts 156°
2026-05-06 00:36 34.95160 -89.96162 4597 ft 224 kts 158°
2026-05-06 00:36 34.93842 -89.95007 5022 ft 247 kts 142°
2026-05-06 00:36 34.92925 -89.93106 5499 ft 277 kts 110°
2026-05-06 00:36 34.92687 -89.90743 6279 ft 284 kts 95°
2026-05-06 00:37 34.92662 -89.88332 6982 ft 290 kts 93°
2026-05-06 00:37 34.92662 -89.85874 7608 ft 299 kts 88°
2026-05-06 00:37 34.93021 -89.83330 8169 ft 312 kts 71°
2026-05-06 00:37 34.93937 -89.80872 8664 ft 325 kts 58°
2026-05-06 00:38 34.95189 -89.78567 9297 ft 328 kts 43°
2026-05-06 00:38 34.96932 -89.76825 9980 ft 322 kts 22°
2026-05-06 00:38 34.98957 -89.75798 10634 ft 318 kts
2026-05-06 00:38 35.01162 -89.75287 11100 ft 322 kts 355°
2026-05-06 00:39 35.03392 -89.75265 11696 ft 324 kts 348°
2026-05-06 00:39 35.05652 -89.75427 12351 ft 328 kts 346°
2026-05-06 00:39 35.07907 -89.75617 13167 ft 328 kts 346°
2026-05-06 00:39 35.10195 -89.75783 13905 ft 331 kts 347°
2026-05-06 00:40 35.12510 -89.75925 14583 ft 335 kts 347°
2026-05-06 00:40 35.14854 -89.76056 15302 ft 338 kts 347°
2026-05-06 00:40 35.17199 -89.76186 15964 ft 341 kts 346°
2026-05-06 00:40 35.19584 -89.76317 16558 ft 346 kts 346°
2026-05-06 00:41 35.22018 -89.76453 17164 ft 350 kts 347°
2026-05-06 00:41 35.24432 -89.76583 17885 ft 349 kts 346°
2026-05-06 00:41 35.26894 -89.76704 18442 ft 355 kts 348°
2026-05-06 00:41 35.29372 -89.76578 19021 ft 367 kts 356°
2026-05-06 00:42 35.31934 -89.75891 19578 ft 384 kts
2026-05-06 00:42 35.34461 -89.74599 20125 ft 397 kts 17°
2026-05-06 00:42 35.36881 -89.72935 20694 ft 403 kts 22°
2026-05-06 00:42 35.39260 -89.71112 21190 ft 408 kts 24°
2026-05-06 00:43 35.41682 -89.69204 21747 ft 409 kts 24°
2026-05-06 00:43 35.44067 -89.67331 22249 ft 411 kts 24°
2026-05-06 00:43 35.46502 -89.65447 22691 ft 414 kts 23°
2026-05-06 00:43 35.48955 -89.63577 23148 ft 417 kts 23°
2026-05-06 00:44 35.51437 -89.61705 23564 ft 421 kts 22°
2026-05-06 00:44 35.53969 -89.59813 23880 ft 428 kts 22°
2026-05-06 00:44 35.56503 -89.57927 24423 ft 428 kts 22°
2026-05-06 00:44 35.59065 -89.56029 24811 ft 432 kts 21°
2026-05-06 00:45 35.61630 -89.54131 25253 ft 434 kts 21°
2026-05-06 00:45 35.64241 -89.52185 25747 ft 435 kts 21°
2026-05-06 00:45 35.66838 -89.50234 26065 ft 441 kts 21°
2026-05-06 00:45 35.69481 -89.48253 26416 ft 445 kts 21°
2026-05-06 00:46 35.72116 -89.46281 26874 ft 445 kts 21°
2026-05-06 00:46 35.74752 -89.44310 27217 ft 449 kts 21°
2026-05-06 00:46 35.77442 -89.42300 27666 ft 449 kts 20°
2026-05-06 00:46 35.80145 -89.40282 27857 ft 457 kts 20°
2026-05-06 00:47 35.82864 -89.38254 28267 ft 458 kts 20°
2026-05-06 00:47 35.85576 -89.36227 28584 ft 461 kts 20°
2026-05-06 00:47 35.88356 -89.34146 28991 ft 462 kts 21°
2026-05-06 00:47 35.91125 -89.32075 29103 ft 470 kts 21°
2026-05-06 00:48 35.93902 -89.29992 29548 ft 469 kts 20°
2026-05-06 00:48 35.96699 -89.27886 29860 ft 471 kts 20°
2026-05-06 00:48 35.99519 -89.25763 30185 ft 473 kts 20°
2026-05-06 00:48 36.02294 -89.23672 30563 ft 473 kts 20°
2026-05-06 00:49 36.05143 -89.21524 30857 ft 475 kts 20°
2026-05-06 00:49 36.07973 -89.19391 31179 ft 476 kts 19°
2026-05-06 00:49 36.10804 -89.17252 31526 ft 476 kts 19°
2026-05-06 00:49 36.13665 -89.15094 31690 ft 481 kts 19°
2026-05-06 00:50 36.16536 -89.12927 31984 ft 482 kts 19°
2026-05-06 00:50 36.19362 -89.10789 32338 ft 483 kts 19°
2026-05-06 00:50 36.22229 -89.08621 32614 ft 484 kts 19°
2026-05-06 00:50 36.25102 -89.06448 32798 ft 486 kts 19°
2026-05-06 00:51 36.27964 -89.04271 33354 ft 481 kts 19°
2026-05-06 00:51 36.30810 -89.02099 33877 ft 477 kts 18°
2026-05-06 00:51 36.33655 -88.99931 34147 ft 479 kts 18°
2026-05-06 00:51 36.36504 -88.97770 34383 ft 480 kts 18°
2026-05-06 00:52 36.39327 -88.95625 34795 ft 478 kts 18°
2026-05-06 00:52 36.45002 -88.91315 34815 ft 477 kts 18°
2026-05-06 00:53 36.50644 -88.87020 34815 ft 477 kts 18°
2026-05-06 00:53 36.56316 -88.82712 34813 ft 482 kts 18°
2026-05-06 00:54 36.61973 -88.78386 34812 ft 477 kts 18°
2026-05-06 00:54 36.67644 -88.74047 34813 ft 479 kts 18°
2026-05-06 00:55 36.73329 -88.69695 34816 ft 482 kts 18°
2026-05-06 00:55 36.79054 -88.65308 34445 ft 484 kts 19°
2026-05-06 00:55 36.81907 -88.63116 34167 ft 482 kts 19°
2026-05-06 00:56 36.84720 -88.60946 33886 ft 481 kts 19°
2026-05-06 00:56 36.87575 -88.58744 33611 ft 481 kts 19°
2026-05-06 00:56 36.90434 -88.56542 33339 ft 486 kts 19°
2026-05-06 00:56 36.93298 -88.54342 33093 ft 489 kts 19°
2026-05-06 00:57 36.96217 -88.52090 32855 ft 484 kts 20°
2026-05-06 00:57 37.01888 -88.47688 32816 ft 483 kts 20°
2026-05-06 00:58 37.07655 -88.43233 32815 ft 490 kts 20°
2026-05-06 00:58 37.13407 -88.38762 32819 ft 485 kts 20°
2026-05-06 00:59 37.19106 -88.34313 32818 ft 484 kts 20°
2026-05-06 00:59 37.24894 -88.29829 32820 ft 495 kts 20°
2026-05-06 01:00 37.30792 -88.25253 32822 ft 506 kts 21°
2026-05-06 01:00 37.36826 -88.20544 32823 ft 511 kts 21°
2026-05-06 01:01 37.42818 -88.15826 32826 ft 505 kts 21°
2026-05-06 01:01 37.48763 -88.11145 32828 ft 508 kts 21°
2026-05-06 01:02 37.54733 -88.06447 32830 ft 509 kts 21°
2026-05-06 01:02 37.60764 -88.01702 32831 ft 509 kts 21°
2026-05-06 01:03 37.66734 -87.96983 32834 ft 508 kts 21°
2026-05-06 01:03 37.72676 -87.92279 32830 ft 506 kts 21°
2026-05-06 01:04 37.78668 -87.87534 32833 ft 505 kts 21°
2026-05-06 01:04 37.84616 -87.82817 32838 ft 510 kts 21°
2026-05-06 01:05 37.90593 -87.78067 32840 ft 506 kts 21°
2026-05-06 01:05 37.96573 -87.73393 32843 ft 504 kts 19°
2026-05-06 01:06 38.02640 -87.69012 32848 ft 501 kts 18°
2026-05-06 01:06 38.08761 -87.64695 32851 ft 504 kts 18°
2026-05-06 01:07 38.14902 -87.60334 32851 ft 504 kts 18°
2026-05-06 01:07 38.20970 -87.55975 32850 ft 505 kts 18°
2026-05-06 01:08 38.27071 -87.51561 32848 ft 501 kts 18°
2026-05-06 01:08 38.33099 -87.47176 32844 ft 497 kts 18°
2026-05-06 01:09 38.38976 -87.42866 32466 ft 481 kts 18°
2026-05-06 01:09 38.41877 -87.40744 31769 ft 482 kts 18°
2026-05-06 01:09 38.44758 -87.38645 30662 ft 482 kts 19°
2026-05-06 01:09 38.47645 -87.36543 29542 ft 482 kts 19°
2026-05-06 01:10 38.50577 -87.34414 28057 ft 490 kts 20°
2026-05-06 01:10 38.53538 -87.32269 27138 ft 490 kts 21°
2026-05-06 01:10 38.56432 -87.30148 26550 ft 474 kts 22°
2026-05-06 01:10 38.59255 -87.28057 26017 ft 459 kts 22°
2026-05-06 01:11 38.61955 -87.26054 25494 ft 445 kts 22°
2026-05-06 01:11 38.64590 -87.24102 24864 ft 436 kts 22°
2026-05-06 01:11 38.67226 -87.22164 24035 ft 441 kts 22°
2026-05-06 01:11 38.69902 -87.20201 23196 ft 447 kts 24°
2026-05-06 01:12 38.72609 -87.18204 22617 ft 446 kts 24°
2026-05-06 01:12 38.75265 -87.16231 22124 ft 442 kts 24°
2026-05-06 01:12 38.77923 -87.14247 21622 ft 439 kts 24°
2026-05-06 01:12 38.80554 -87.12282 21087 ft 437 kts 24°
2026-05-06 01:13 38.83155 -87.10335 20652 ft 432 kts 24°
2026-05-06 01:13 38.85753 -87.08393 20048 ft 432 kts 24°
2026-05-06 01:13 38.88347 -87.06458 19511 ft 430 kts 24°
2026-05-06 01:13 38.90906 -87.04546 19018 ft 427 kts 24°
2026-05-06 01:14 38.96008 -87.00726 18039 ft 419 kts 24°
2026-05-06 01:14 38.98501 -86.98882 17527 ft 416 kts 23°
2026-05-06 01:14 39.01037 -86.97044 16920 ft 416 kts 23°
2026-05-06 01:15 39.03524 -86.95252 16475 ft 410 kts 23°
2026-05-06 01:15 39.06021 -86.93461 15965 ft 407 kts 24°
2026-05-06 01:15 39.08461 -86.91706 15441 ft 405 kts 24°
2026-05-06 01:15 39.10920 -86.89935 15017 ft 399 kts 24°
2026-05-06 01:16 39.13312 -86.88180 14520 ft 397 kts 25°
2026-05-06 01:16 39.15673 -86.86375 14005 ft 395 kts 26°
2026-05-06 01:16 39.18025 -86.84528 13394 ft 396 kts 27°
2026-05-06 01:16 39.20370 -86.82676 12821 ft 395 kts 27°
2026-05-06 01:17 39.22687 -86.80847 12391 ft 390 kts 27°
2026-05-06 01:17 39.24999 -86.79031 11896 ft 387 kts 27°
2026-05-06 01:17 39.27262 -86.77223 11466 ft 383 kts 30°
2026-05-06 01:17 39.29470 -86.75293 11051 ft 378 kts 33°
2026-05-06 01:18 39.31571 -86.73341 10988 ft 377 kts 34°
2026-05-06 01:18 39.33695 -86.71333 10941 ft 374 kts 34°
2026-05-06 01:18 39.35733 -86.69408 10683 ft 356 kts 34°
2026-05-06 01:18 39.37714 -86.67553 10372 ft 341 kts 34°
2026-05-06 01:19 39.39605 -86.65797 10044 ft 330 kts 33°
2026-05-06 01:19 39.41487 -86.64202 9540 ft 324 kts 29°
2026-05-06 01:19 39.43405 -86.62716 9054 ft 318 kts 27°
2026-05-06 01:19 39.45288 -86.61328 8640 ft 308 kts 26°
2026-05-06 01:20 39.47091 -86.59971 8467 ft 288 kts 30°
2026-05-06 01:20 39.48723 -86.58525 7863 ft 286 kts 34°
2026-05-06 01:20 39.50272 -86.56958 7208 ft 284 kts 36°
2026-05-06 01:20 39.51794 -86.55353 6633 ft 278 kts 36°
2026-05-06 01:21 39.53262 -86.53812 6055 ft 272 kts 36°
2026-05-06 01:21 39.54700 -86.52249 5485 ft 266 kts 38°
2026-05-06 01:21 39.56015 -86.50633 5021 ft 257 kts 42°
2026-05-06 01:21 39.57251 -86.49003 4557 ft 248 kts 43°
2026-05-06 01:22 39.58437 -86.47478 4180 ft 234 kts 41°
2026-05-06 01:22 39.59555 -86.46094 3861 ft 209 kts 40°
2026-05-06 01:22 39.60540 -86.44859 3589 ft 188 kts 41°
2026-05-06 01:22 39.61432 -86.43727 3345 ft 171 kts 41°
2026-05-06 01:23 39.62246 -86.42698 3095 ft 158 kts 41°
2026-05-06 01:23 39.63010 -86.41734 2875 ft 146 kts 41°
2026-05-06 01:23 39.63713 -86.40842 2769 ft 137 kts 40°
2026-05-06 01:23 39.64419 -86.39952 2521 ft 144 kts 40°
2026-05-06 01:24 39.65120 -86.39066 2276 ft 139 kts 41°
2026-05-06 01:24 39.65819 -86.38180 2130 ft 141 kts 41°
2026-05-06 01:24 39.66519 -86.37294 1912 ft 139 kts 41°
2026-05-06 01:24 39.67211 -86.36416 1725 ft 140 kts 41°
2026-05-06 01:25 39.67907 -86.35535 1535 ft 141 kts 41°
2026-05-06 01:25 39.68617 -86.34635 1342 ft 142 kts 43°
2026-05-06 01:25 39.69331 -86.33742 1165 ft 142 kts 41°
2026-05-06 01:25 39.70045 -86.32839 924 ft 142 kts 43°
2026-05-06 01:26 39.70733 -86.31965 758 ft 138 kts 44°
2026-05-06 01:26 39.71356 -86.31173 749 ft 103 kts 45°
2026-05-06 01:26 39.71724 -86.30704 756 ft 48 kts 45°
2026-05-06 01:26 39.71876 -86.30507 759 ft 23 kts 44°
2026-05-06 01:27 39.71978 -86.30356 762 ft 21 kts 58°
2026-05-06 01:27 39.72002 -86.30248 764 ft 8 kts 126°
2026-05-06 01:27 39.71978 -86.30194 765 ft 5 kts 106°
2026-05-06 01:27 39.71977 -86.30187 765 ft 0 kts 106°
2026-05-06 01:28 39.71974 -86.30171 766 ft 8 kts 98°
2026-05-06 01:28 39.71958 -86.30085 767 ft 9 kts 123°
2026-05-06 01:28 39.71920 -86.30031 768 ft 7 kts 134°
2026-05-06 01:28 39.71882 -86.29981 769 ft 9 kts 134°
2026-05-06 01:29 39.71846 -86.29926 771 ft 6 kts 167°
2026-05-06 01:29 39.71804 -86.29953 770 ft 7 kts 208°
2026-05-06 01:29 39.71756 -86.29972 770 ft 7 kts 192°
2026-05-06 01:29 39.71712 -86.29962 770 ft 6 kts 140°
2026-05-06 01:30 39.71687 -86.29930 770 ft 3 kts 146°
2026-05-06 01:30 39.71668 -86.29926 771 ft 2 kts 175°
2026-05-06 01:30 39.71658 -86.29926 771 ft 0 kts 175°
2026-05-06 01:30 39.71655 -86.29926 771 ft 1 kts 175°
2026-05-06 01:31 39.71653 -86.29925 771 ft 0 kts 175°